Starlink 32745

operational
NORAD ID: 62755 Int'l Des: 2025-014 Owner: SPXS Country: US Constellation: starlink
LEOCIRCULAR

Starlink 32745について

説明を読み込み中...

リアルタイム位置

3D地球を読み込み中...

次回通過

高度履歴

Altitude vs Time

uPlot chart will show altitude changes over time

軌道要素

1 62755U 25014W 25258.50728989 .00024276 00000-0 88827-3 0 9994
2 62755 43.0019 63.8845 0001072 268.2428 91.8301 15.27599841 36462
Epoch: Sep 15, 2025 • Age: 16 hours

現在のステータス

高度 486.6 km
速度 7.62 km/s
衛星直下点 -18.89°S, 12.69°W
打ち上げ日 Jan 21, 2025
運用期間 0.6 years
タイプ internet

技術仕様

分類 Payload
質量 730.00 kg
乾燥質量 700.00 kg
総質量 730.00 kg
長さ 0.30 m
直径 4.10 m
スパン 29.00 m
形状 Box + pan
製造者 SPXS
バスタイプ Starlink V2M
フェーズステータス In Orbit
所有者/国 SPXS/US

大規模コンステレーション

Loading constellations...